PST,Max TemperatureF,Mean TemperatureF,Min TemperatureF,Max Dew PointF,MeanDew PointF,Min DewpointF,Max Humidity, Mean Humidity, Min Humidity, Max Sea Level PressureIn, Mean Sea Level PressureIn, Min Sea Level PressureIn, Max VisibilityMiles, Mean VisibilityMiles, Min VisibilityMiles, Max Wind SpeedMPH, Mean Wind SpeedMPH, Max Gust SpeedMPH,PrecipitationIn, CloudCover, Events, WindDirDegrees
2012-12-1,63,57,51,44,43,41,71,60,46,30.12,30.07,30.00,10,10,10,9,4,,0.00,1,,343
2012-12-2,71,58,46,46,43,40,80,57,32,30.05,29.96,29.86,10,10,10,24,8,33,0.00,1,,227
2012-12-3,66,58,50,44,43,41,71,58,43,30.25,30.14,30.00,10,10,10,9,5,,0.00,0,,12
2012-12-4,66,57,48,44,42,40,71,58,42,30.35,30.28,30.22,10,10,10,6,3,,0.00,0,,319
2012-12-5,63,56,48,43,42,40,74,61,46,30.20,30.12,30.03,10,10,10,6,2,,0.00,0,,303
2012-12-6,68,57,46,41,39,37,68,53,36,30.03,29.97,29.90,10,10,10,17,4,,0.00,0,,307
2012-12-7,66,58,51,33,24,18,41,28,16,30.05,30.00,29.94,10,10,10,23,13,30,0.00,0,,343
2012-12-8,64,54,44,26,21,17,41,29,18,30.03,29.98,29.93,10,10,10,15,6,,0.00,0,,331
2012-12-9,62,53,43,21,19,16,35,26,19,30.34,30.16,29.96,10,10,10,25,14,32,0.00,0,,71
2012-12-10,55,46,36,24,19,17,52,37,23,30.37,30.27,30.18,10,10,10,7,4,,0.00,0,,232
2012-12-11,57,47,37,25,22,19,57,41,24,30.19,30.10,29.96,10,10,10,6,2,,0.00,0,,100
2012-12-12,62,50,39,24,21,17,55,32,19,29.93,29.87,29.82,10,10,10,16,4,21,0.00,0,,143
2012-12-13,57,52,46,45,36,22,93,63,31,29.86,29.78,29.68,10,10,6,17,5,26,0.13,5,Rain,109
2012-12-14,55,50,43,44,38,27,90,70,41,29.94,29.77,29.63,10,10,10,22,8,25,0.13,6,Rain,241
2012-12-15,48,42,37,38,33,29,87,68,46,30.06,29.97,29.87,10,10,10,15,6,25,0.04,5,Rain,313
2012-12-16,48,42,35,37,33,28,82,70,52,30.19,30.14,30.06,10,10,10,7,3,,0.00,2,,43
2012-12-17,51,48,42,39,38,36,85,72,62,30.16,30.06,29.93,10,10,10,13,5,,0.00,6,,92
2012-12-18,55,47,39,44,36,24,89,66,41,29.91,29.76,29.64,10,10,10,29,8,43,0.01,5,,263
2012-12-19,46,40,32,22,9,4,52,30,17,30.51,30.28,29.90,10,10,10,31,18,41,0.00,0,,353
2012-12-20,46,37,28,17,13,9,61,41,22,30.51,30.43,30.33,10,10,10,8,3,,0.00,0,,167
2012-12-21,50,39,28,21,17,13,63,45,24,30.31,30.25,30.19,10,10,10,9,3,,0.00,0,,199
2012-12-22,52,41,30,27,22,20,67,48,31,30.21,30.14,30.07,10,10,10,9,4,,0.00,0,,93
2012-12-23,53,44,35,32,28,24,70,55,43,30.19,30.10,30.00,10,10,10,9,5,,0.00,0,,44
2012-12-24,61,49,37,37,25,12,76,44,17,30.20,30.02,29.91,10,10,10,31,9,39,0.00,0,,347
2012-12-25,46,41,36,17,13,10,46,32,22,30.31,30.18,30.00,10,10,10,10,5,,0.00,0,,138
2012-12-26,50,42,35,24,21,17,62,45,31,29.99,29.92,29.85,10,10,10,12,3,,0.00,4,,64
2012-12-27,52,42,33,26,21,15,73,45,25,30.17,30.01,29.93,10,10,10,18,7,26,0.00,0,,338
2012-12-28,48,41,34,20,18,16,52,40,28,30.30,30.22,30.13,10,10,10,13,6,,0.00,0,,35
2012-12-29,48,42,35,30,20,16,56,41,27,30.20,30.11,29.97,10,10,10,7,3,,0.00,3,,158
2012-12-30,48,42,36,27,23,19,57,46,37,30.05,30.00,29.95,10,10,10,13,5,24,0.00,6,,360
2012-12-31,48,40,32,19,14,10,52,35,22,30.31,30.20,30.06,10,10,9,25,12,30,0.00,0,,351